Location: Boiro
(42.6475°N, 8.8834°W)
Time: 06:36:59
(UTC+02:00)

SL-8 DEB - Pass Details

Date: 07 July 2022
Orbit: 890 x 1013 km, 83.1° (Epoch: 16 August)

Event Time Altitude Azimuth Distance (km) Brightness Sun altitude
Rises 01:04:25 0° 351° (N) 3,587 ? -21.1°
Reaches altitude 10° 01:06:56 10° 350° (N) 2,624 ? -21.3°
Maximum altitude 01:12:52 78° 265° (W) 926 ? -21.7°
Enters shadow 01:15:02 41° 187° (S) 1,283 ? -21.8°
